TimeEST,TemperatureF,Dew PointF,Humidity,Sea Level PressureIn,VisibilityMPH,Wind Direction,Wind SpeedMPH,Gust SpeedMPH,PrecipitationIn,Events,Conditions,WindDirDegrees,DateUTC
12:54 AM,28.9,17.1,61,30.08,-9999.0,SW,3.5,-,N/A,,Unknown,220,2013-01-04 05:54:00
1:54 AM,27.0,18.0,69,30.08,-9999.0,Calm,Calm,-,N/A,,Unknown,0,2013-01-04 06:54:00
2:54 AM,28.0,18.0,66,30.09,-9999.0,Calm,Calm,-,N/A,,Unknown,0,2013-01-04 07:54:00
3:54 AM,28.9,19.0,67,30.09,-9999.0,Calm,Calm,-,N/A,,Unknown,0,2013-01-04 08:54:00
4:54 AM,30.0,19.9,66,30.08,-9999.0,Calm,Calm,-,0.02,,Unknown,0,2013-01-04 09:54:00
5:54 AM,30.9,21.0,67,30.08,-9999.0,SW,5.8,-,N/A,,Unknown,220,2013-01-04 10:54:00
6:54 AM,30.9,21.0,67,30.07,-9999.0,SW,6.9,-,N/A,,Unknown,220,2013-01-04 11:54:00
7:54 AM,30.0,21.9,72,30.08,-9999.0,SW,8.1,-,N/A,,Unknown,220,2013-01-04 12:54:00
8:54 AM,30.9,21.9,69,30.09,-9999.0,Variable,5.8,-,N/A,,Unknown,0,2013-01-04 13:54:00
9:54 AM,30.9,23.0,72,30.09,-9999.0,SW,9.2,-,N/A,,Unknown,230,2013-01-04 14:54:00
10:00 AM,-9999,-9999,N/A,-9999,-9999.0,North,-9999.0,-,N/A,,Unknown,0,2013-01-04 15:00:00
10:54 AM,32.0,21.0,64,30.07,-9999.0,WSW,6.9,-,N/A,,Unknown,240,2013-01-04 15:54:00
11:54 AM,33.1,19.9,59,30.04,-9999.0,SW,10.4,19.6,N/A,,Unknown,230,2013-01-04 16:54:00
12:54 PM,35.1,19.0,52,30.01,-9999.0,Variable,5.8,-,N/A,,Unknown,0,2013-01-04 17:54:00
1:54 PM,35.1,19.0,52,29.99,-9999.0,Variable,4.6,20.7,N/A,,Unknown,0,2013-01-04 18:54:00
2:54 PM,35.1,18.0,50,29.97,-9999.0,Variable,3.5,-,N/A,,Unknown,0,2013-01-04 19:54:00
3:54 PM,35.1,18.0,50,29.97,-9999.0,Variable,4.6,-,0.02,,Unknown,0,2013-01-04 20:54:00
4:54 PM,34.0,18.0,52,29.98,-9999.0,SW,6.9,-,N/A,,Unknown,220,2013-01-04 21:54:00
5:54 PM,32.0,19.0,59,29.99,-9999.0,Calm,Calm,-,N/A,,Unknown,0,2013-01-04 22:54:00
6:54 PM,33.1,18.0,54,29.99,-9999.0,SW,8.1,-,N/A,,Unknown,220,2013-01-04 23:54:00
7:54 PM,32.0,19.0,59,30.00,-9999.0,SSW,4.6,-,N/A,,Unknown,210,2013-01-05 00:54:00
8:54 PM,32.0,19.0,59,30.00,-9999.0,SW,5.8,-,N/A,,Unknown,220,2013-01-05 01:54:00
9:54 PM,32.0,18.0,56,30.00,-9999.0,Variable,4.6,-,N/A,,Unknown,0,2013-01-05 02:54:00
10:54 PM,32.0,17.1,54,30.02,-9999.0,Variable,3.5,-,N/A,,Unknown,0,2013-01-05 03:54:00
11:54 PM,32.0,16.0,52,30.04,-9999.0,SSW,3.5,-,N/A,,Unknown,200,2013-01-05 04:54:00